[[{"header":{"parameterUnit":"m.s-1","parameterCategory":1,"la1":30.2991,"la2":30.254,"lo1":-89.0895,"lo2":-89.0444,"dx":0.0017,"dy":0.0017,"nx":28,"ny":28,"refTime":"2022-12-05T15:00:00:Z","depth":0,"parameterNumber":2,"parameterNumberName":"U-component_of_WINDS"},"data":[0,0,0,0,0,0,0,0,0,0,0,0,0,0,0,0,0,0,0,0,0,0,0,0,0,0,0,0,0,0,0,0,0,0,0,0,0,0,0,0,0,0,0,0,0,0,0,0,0,0,0,0,0,0,0,0,0,0,-0.7494,-0.7494,0,-0.7502,-0.7502,-0.7502,-0.7499,-0.7499,-0.7499,-0.7499,-0.7508,-0.7508,-0.7508,0,0,0,0,0,0,0,0,0,0,0,0,0,-0.7476,-0.7476,-0.7494,-0.7494,-0.7494,-0.7502,-0.7502,-0.7502,-0.7499,-0.7499,-0.7499,-0.7499,-0.7507,-0.7508,-0.7508,0,0,0,0,0,0,0,0,0,0,0,0,0,-0.7484,-0.7476,-0.7494,-0.7494,-0.7494,-0.7502,-0.7502,-0.7502,-0.7499,-0.7499,-0.7499,-0.7499,-0.7507,-0.7508,-0.7509,-0.7518,0,0,-0.751,-0.7511,0,0,0,0,0,0,0,0,-0.7483,-0.7484,-0.7494,-0.7494,-0.7494,-0.7499,-0.7499,-0.7508,-0.7499,-0.7497,-0.7499,-0.7498,-0.7505,-0.7506,-0.7508,-0.7518,-0.7519,-0.751,-0.7511,-0.7511,-0.7511,0,0,0,0,0,0,0,-0.7483,-0.7484,-0.7497,-0.7494,-0.7494,-0.7493,-0.7494,-0.7501,-0.7503,-0.7497,-0.7497,-0.7498,-0.7505,-0.7507,-0.7508,-0.7519,-0.751,-0.7511,-0.7511,-0.7512,-0.7536,-0.7536,0,0,0,0,0,0,-0.7482,-0.7484,-0.7497,-0.7497,-0.7488,-0.7494,-0.7495,-0.7498,-0.7503,-0.7503,-0.7498,-0.7498,-0.7507,-0.7508,-0.7509,-0.7519,-0.7511,-0.7512,-0.7512,-0.7535,-0.7536,-0.7536,0,0,0,0,0,0,-0.7482,-0.7483,-0.7497,-0.7491,-0.7492,-0.7494,-0.7498,-0.7498,-0.75,-0.7503,-0.7504,-0.75,-0.7506,-0.7508,-0.7515,-0.7519,-0.7512,-0.7512,-0.7535,-0.7535,-0.7536,-0.754,0,0,0,0,0,0,-0.7481,-0.7483,-0.7487,-0.7491,-0.7492,-0.7503,-0.7498,-0.7499,-0.7501,-0.7501,-0.7505,-0.7506,-0.7506,-0.7514,-0.7516,-0.752,-0.7513,-0.7535,-0.7535,-0.7536,-0.7539,-0.754,-0.7541,0,0,0,0,0,-0.7481,-0.7488,-0.7487,-0.7489,-0.7497,-0.7503,-0.7505,-0.7505,-0.7502,-0.7505,-0.7507,-0.7506,-0.7518,-0.7515,-0.7517,-0.7521,-0.7534,-0.7535,-0.7536,-0.7539,-0.754,-0.7541,0,0,0,0,0,0,-0.7486,-0.7489,-0.7488,-0.7497,-0.75,-0.7503,-0.7508,-0.7506,-0.7511,-0.751,-0.751,-0.7511,-0.7519,-0.7521,-0.7517,-0.7529,-0.7526,-0.7527,-0.7528,-0.7529,-0.753,-0.7529,-0.7513,0,0,0,0,0,-0.7488,-0.7492,-0.7495,-0.7503,-0.7504,-0.7506,-0.7508,-0.7508,-0.7512,-0.7513,-0.7515,-0.7519,-0.7523,-0.7526,-0.7531,-0.754,-0.754,-0.7543,-0.7544,-0.7545,-0.7546,-0.7549,-0.7551,-0.7538,-0.7538,-0.7538,0,0,-0.7492,-0.7494,-0.7498,-0.7504,-0.7506,-0.7511,-0.7507,-0.7512,-0.7516,-0.7514,-0.7521,-0.7522,-0.7526,-0.7534,-0.7538,-0.7536,-0.7549,-0.7546,-0.7546,-0.7547,-0.755,-0.7551,-0.7552,-0.7538,-0.7538,-0.7538,0,0,-0.7502,-0.7505,-0.7511,-0.7513,-0.7517,-0.7517,-0.7519,-0.7522,-0.7523,-0.753,-0.7528,-0.7532,-0.754,-0.7543,-0.7545,-0.7555,-0.7553,-0.7556,-0.7561,-0.7565,-0.7566,-0.7567,-0.7569,-0.757,-0.7557,-0.7557,-0.7557,0,-0.7507,-0.7515,-0.7514,-0.752,-0.7522,-0.752,-0.7526,-0.7528,-0.7533,-0.7535,-0.7533,-0.7542,-0.7545,-0.7552,-0.7555,-0.7557,-0.7558,-0.7556,-0.7566,-0.7566,-0.7567,-0.757,-0.7571,-0.7558,-0.7557,-0.7557,-0.7557,0,-0.752,-0.7525,-0.7529,-0.7533,-0.7536,-0.7542,-0.7542,-0.7545,-0.7545,-0.7545,-0.7552,-0.7555,-0.7559,-0.7561,-0.7561,-0.7569,-0.7567,-0.7565,-0.7562,-0.7569,-0.7571,-0.7572,-0.7558,-0.7558,-0.7558,-0.7558,0,0,-0.7534,-0.7537,-0.7539,-0.754,-0.7543,-0.7547,-0.7552,-0.7556,-0.7558,-0.7561,-0.7565,-0.7572,-0.757,-0.7572,-0.7572,-0.7575,-0.7582,-0.7573,-0.7573,-0.7574,-0.759,-0.7591,-0.7592,-0.7581,-0.7581,-0.7581,-0.7589,0,-0.7544,-0.7552,-0.7552,-0.756,-0.7564,-0.7562,-0.7566,-0.7568,-0.7569,-0.7573,-0.7573,-0.7578,-0.7575,-0.7576,-0.758,-0.7581,-0.7585,-0.758,-0.7584,-0.7585,-0.7583,-0.7593,-0.7595,-0.7602,-0.759,-0.759,-0.759,0,-0.7556,-0.7559,-0.7568,-0.7569,-0.7571,-0.7575,-0.7578,-0.7581,-0.7584,-0.7584,-0.7586,-0.7585,-0.759,-0.7586,-0.7592,-0.7589,-0.7591,-0.7591,-0.7592,-0.7592,-0.7588,-0.7593,-0.7604,-0.7605,-0.7592,-0.7592,-0.7592,0,-0.7565,-0.7571,-0.7576,-0.7577,-0.758,-0.7582,-0.7583,-0.7585,-0.7587,-0.759,-0.7591,-0.7595,-0.7597,-0.7599,-0.7599,-0.7596,-0.7605,-0.7602,-0.7605,-0.7605,-0.7607,-0.7606,-0.7617,-0.7609,-0.7609,-0.7609,-0.7609,0,-0.7575,-0.758,-0.758,-0.7583,-0.7588,-0.7587,-0.7593,-0.7594,-0.7595,-0.7598,-0.7597,-0.76,-0.76,-0.7603,-0.7603,-0.7607,-0.7609,-0.7609,-0.7608,-0.7608,-0.7608,-0.7609,-0.7609,-0.7609,-0.7609,-0.7609,-0.7609,0,-0.7585,-0.7585,-0.759,-0.7592,-0.7592,-0.7596,-0.7597,-0.76,-0.76,-0.7604,-0.7605,-0.7606,-0.7609,-0.7609,-0.7613,-0.7613,-0.7619,-0.7618,-0.7618,-0.7618,-0.7621,-0.762,-0.7632,-0.7634,-0.7624,-0.7625,-0.7625,0,-0.7591,-0.7595,-0.7597,-0.7598,-0.7599,-0.7603,-0.7604,-0.7604,-0.7606,-0.7608,-0.7611,-0.7614,-0.7616,-0.7622,-0.7622,-0.7625,-0.7624,-0.7628,-0.7625,-0.7624,-0.7624,-0.7623,-0.7623,-0.7629,-0.7629,-0.7629,-0.7629,0,-0.7603,-0.7602,-0.7605,-0.7607,-0.7609,-0.7611,-0.7613,-0.7615,-0.7614,-0.7616,-0.762,-0.7621,-0.7625,-0.7628,-0.7631,-0.7632,-0.763,-0.763,-0.7631,-0.7631,-0.763,-0.763,-0.7619,-0.763,-0.763,-0.763,-0.763,-0.763,-0.761,-0.7613,-0.7614,-0.7617,-0.7618,-0.762,-0.7622,-0.7622,-0.7625,-0.7628,-0.7627,-0.7631,-0.7632,-0.7635,-0.7636,-0.7639,-0.7638,-0.7639,-0.7639,-0.7639,-0.7639,-0.763,-0.7639,-0.7639,-0.7639,-0.7639,-0.7639,0,-0.7621,-0.7621,-0.7624,-0.7626,-0.7628,-0.7626,-0.7628,-0.763,-0.7632,-0.7634,-0.7636,-0.7639,-0.7642,-0.7643,-0.7645,-0.7647,-0.7646,-0.7647,-0.7647,-0.7647,-0.7641,-0.764,-0.7648,-0.7648,-0.7648,-0.7648,-0.7648,-0.7648,-0.7626,-0.7631,-0.763,-0.7635,-0.7635,-0.7638,-0.7639,-0.764,-0.7641,-0.7645,-0.7647,-0.7647,-0.7648,-0.765,-0.7653,-0.7653,-0.7653,-0.7655,-0.7655,-0.7649,-0.7648,-0.7647,-0.7646,-0.7655,-0.7655,-0.7661,-0.7661,-0.7661]},{"header":{"parameterUnit":"m.s-1","parameterCategory":1,"la1":30.2991,"la2":30.254,"lo1":-89.0895,"lo2":-89.0444,"dx":0.0017,"dy":0.0017,"nx":28,"ny":28,"refTime":"2022-12-05T15:00:00:Z","depth":0,"parameterNumber":3,"parameterNumberName":"V-component_of_WINDS"},"data":[0,0,0,0,0,0,0,0,0,0,0,0,0,0,0,0,0,0,0,0,0,0,0,0,0,0,0,0,0,0,0,0,0,0,0,0,0,0,0,0,0,0,0,0,0,0,0,0,0,0,0,0,0,0,0,0,0,0,0.2021,0.2021,0,0.2036,0.2036,0.2036,0.2073,0.2074,0.2075,0.2075,0.2089,0.2089,0.2088,0,0,0,0,0,0,0,0,0,0,0,0,0,0.2026,0.2025,0.2021,0.2021,0.2022,0.2036,0.2036,0.2036,0.2073,0.2074,0.2075,0.2076,0.2089,0.2089,0.2088,0,0,0,0,0,0,0,0,0,0,0,0,0,0.203,0.2025,0.2021,0.2042,0.2044,0.2036,0.2036,0.2036,0.2073,0.2074,0.2075,0.2076,0.2089,0.2089,0.2088,0.2061,0,0,0.2087,0.2086,0,0,0,0,0,0,0,0,0.203,0.203,0.2039,0.204,0.2043,0.2054,0.2042,0.2044,0.2072,0.2062,0.2075,0.2077,0.2076,0.2077,0.2077,0.2062,0.2063,0.2087,0.2086,0.2086,0.2086,0,0,0,0,0,0,0,0.2029,0.203,0.2027,0.2039,0.2041,0.205,0.2052,0.2043,0.2062,0.2063,0.2065,0.2067,0.2078,0.2077,0.2078,0.2063,0.2087,0.2086,0.2086,0.2086,0.2027,0.2025,0,0,0,0,0,0,0.2026,0.2029,0.2027,0.2027,0.2039,0.2049,0.2051,0.2049,0.2062,0.2066,0.2066,0.2068,0.2078,0.2078,0.2078,0.2048,0.2086,0.2086,0.2085,0.2028,0.2026,0.2025,0,0,0,0,0,0,0.2026,0.2026,0.2026,0.2029,0.203,0.2048,0.2045,0.2049,0.2048,0.2065,0.2068,0.2062,0.2079,0.2079,0.2065,0.2049,0.2085,0.2085,0.2029,0.2027,0.2026,0.1986,0,0,0,0,0,0,0.2026,0.2025,0.2015,0.2028,0.2029,0.2013,0.2044,0.2048,0.2047,0.2051,0.2062,0.2065,0.208,0.2066,0.2065,0.2049,0.2084,0.2031,0.2028,0.2026,0.1989,0.1983,0.1978,0,0,0,0,0,0.2026,0.2003,0.2015,0.2014,0.2017,0.2012,0.2012,0.203,0.2046,0.2036,0.2046,0.2065,0.2051,0.2064,0.2063,0.2047,0.2032,0.2029,0.2026,0.1991,0.1984,0.1978,0,0,0,0,0,0,0.1987,0.2005,0.2018,0.1999,0.2004,0.2018,0.2006,0.2022,0.2022,0.2025,0.2047,0.2049,0.2032,0.2038,0.2053,0.2021,0.2044,0.2041,0.2018,0.2011,0.2006,0.2005,0.2084,0,0,0,0,0,0.1977,0.1971,0.1987,0.1968,0.197,0.1987,0.1986,0.1999,0.2005,0.2007,0.2016,0.2021,0.2018,0.2015,0.2013,0.199,0.1993,0.1978,0.1973,0.1968,0.1965,0.1954,0.1948,0.2016,0.2016,0.2016,0,0,0.1954,0.1963,0.1958,0.1961,0.1966,0.196,0.1989,0.1981,0.1976,0.2005,0.1993,0.2,0.2007,0.1989,0.1981,0.1993,0.1947,0.1965,0.1961,0.196,0.195,0.1944,0.1938,0.2014,0.2014,0.2015,0,0,0.191,0.1917,0.1902,0.1907,0.1914,0.1926,0.1923,0.1935,0.1941,0.1929,0.1951,0.1946,0.194,0.1943,0.1945,0.1903,0.1919,0.1901,0.1873,0.1862,0.1856,0.1852,0.1837,0.1831,0.1898,0.1898,0.1898,0,0.1882,0.1873,0.1893,0.1883,0.1884,0.191,0.1896,0.1899,0.1906,0.1905,0.1919,0.1912,0.1918,0.1901,0.1891,0.1891,0.1888,0.19,0.1855,0.1851,0.1847,0.1833,0.1827,0.1896,0.1896,0.1896,0.1897,0,0.1837,0.1831,0.1818,0.1824,0.1823,0.1811,0.1829,0.1826,0.1839,0.1849,0.1837,0.1846,0.1846,0.1843,0.1856,0.1828,0.1835,0.1852,0.1875,0.1838,0.1825,0.182,0.1893,0.1893,0.1894,0.1895,0,0,0.1769,0.1786,0.1781,0.1785,0.1795,0.1791,0.178,0.178,0.1777,0.1781,0.1772,0.1767,0.1782,0.1783,0.1797,0.1787,0.1753,0.1805,0.1805,0.1795,0.1723,0.1711,0.1704,0.1764,0.1764,0.1763,0.1723,0,0.1728,0.1711,0.1729,0.1708,0.1702,0.1728,0.1718,0.1724,0.1733,0.173,0.174,0.1736,0.1756,0.1757,0.1749,0.1759,0.1739,0.1762,0.1757,0.1756,0.1754,0.1698,0.1684,0.1646,0.1718,0.1717,0.1716,0,0.1678,0.1679,0.1658,0.167,0.1669,0.166,0.1662,0.1658,0.1665,0.1673,0.1674,0.1691,0.1681,0.1704,0.1691,0.1706,0.1705,0.171,0.1709,0.1709,0.1734,0.1696,0.1634,0.1629,0.1709,0.1709,0.171,0,0.163,0.1627,0.1614,0.1616,0.163,0.1623,0.1629,0.1637,0.1636,0.1638,0.1637,0.1638,0.1638,0.1638,0.1654,0.1669,0.1639,0.1663,0.1644,0.1644,0.1637,0.1637,0.1574,0.1636,0.1636,0.1636,0.1636,0,0.1583,0.1569,0.1593,0.1585,0.157,0.1591,0.1575,0.1583,0.159,0.1584,0.1606,0.16,0.1621,0.1617,0.163,0.1617,0.1617,0.1623,0.1626,0.1621,0.162,0.162,0.1623,0.1635,0.1635,0.1635,0.1635,0,0.1527,0.1543,0.1531,0.1545,0.1548,0.1537,0.1549,0.1542,0.1553,0.1545,0.1544,0.1561,0.1558,0.1574,0.1573,0.1582,0.1562,0.157,0.156,0.1563,0.1543,0.1545,0.1478,0.147,0.1537,0.1536,0.1536,0,0.1496,0.1486,0.1499,0.1497,0.1501,0.1497,0.1497,0.1516,0.1515,0.1522,0.1514,0.1512,0.1512,0.1505,0.1517,0.1517,0.1525,0.1501,0.1525,0.152,0.1524,0.1525,0.1524,0.1496,0.1496,0.1495,0.1494,0,0.1439,0.1447,0.1446,0.1447,0.1446,0.1448,0.1451,0.1448,0.1469,0.1466,0.1463,0.1463,0.1462,0.146,0.1462,0.1468,0.1484,0.1487,0.1483,0.1477,0.1472,0.1474,0.1547,0.1488,0.1489,0.1489,0.149,0.149,0.1395,0.1387,0.1395,0.1393,0.1398,0.14,0.1395,0.1405,0.1403,0.1404,0.1416,0.141,0.1417,0.1421,0.1425,0.1421,0.1432,0.1426,0.1424,0.1422,0.1419,0.1472,0.1421,0.1422,0.1422,0.1422,0.1422,0,0.1339,0.1346,0.1343,0.1347,0.1346,0.1362,0.1366,0.1364,0.1359,0.1364,0.1363,0.1359,0.1358,0.137,0.1369,0.1364,0.1371,0.1363,0.1363,0.1364,0.1409,0.1413,0.1357,0.1357,0.1357,0.1357,0.1357,0.1357,0.131,0.1298,0.1307,0.1297,0.1304,0.1299,0.13,0.1303,0.1307,0.1302,0.1301,0.1309,0.1317,0.1317,0.1316,0.1319,0.1318,0.1307,0.1313,0.1355,0.1361,0.1367,0.1371,0.1307,0.1307,0.1269,0.1269,0.1268]}]]